Вернуться в каталог

TJS-16

АктивенВоенныеGEO
NORAD 63397·PAYLOAD·🇨🇳 China

Запущен Mar 29, 2025 с Wenchang Space Launch Site

Loading…

TLE

СвежийSource: Space-Track

Эпоха: Sep 14, 2026, 18:47 UTC

1 63397U 25064A   26257.78290056 -.00000111  00000-0  00000+0 0  9997
2 63397   1.3231  80.6916 0001707 251.8082 103.7705  1.00273295  5288

Отслеживайте TJS-16 в реальном времени с AllMySat

Download on the App Store